When you browse on this site, cookies collect data to enhance your experience and personalize the content and advertising you see.
Visit our Privacy Policy to learn more. By continuing to use the site, you agree to this use of cookies and data.
  • In United Kingdom
  • List of Countries
  • For 7 days
  • Water Temperature
  • Weather Map
  • Weather Widgets
  • user-avatar
    Login

    Hourly Weather Aylesbury

    Today, 20 November, Wednesday

    Time Temperature Precipitation Wind Pressure Humidity
    00:00 +3°C° 0 mm 3 mps 753 mmHg 93%
    01:00 +3°C° 0 mm 3 mps 752 mmHg 94%
    02:00 +3°C° 0 mm 3 mps 752 mmHg 94%
    03:00 +3°C° 0 mm 3 mps 752 mmHg 94%
    04:00 +3°C° 0 mm 4 mps 752 mmHg 93%
    05:00 +4°C° 0 mm 4 mps 752 mmHg 92%
    06:00 +3°C° 0 mm 5 mps 752 mmHg 91%
    07:00 +3°C° 0 mm 5 mps 752 mmHg 89%
    08:00 +3°C° 0 mm 5 mps 752 mmHg 88%
    09:00 +3°C° 0 mm 5 mps 752 mmHg 86%
    10:00 +3°C° 0 mm 5 mps 751 mmHg 83%
    11:00 +4°C° 0 mm 6 mps 751 mmHg 80%
    12:00 +4°C° 0 mm 6 mps 751 mmHg 77%
    13:00 +4°C° 0 mm 6 mps 750 mmHg 78%
    14:00 +3°C° 0 mm 5 mps 750 mmHg 78%
    15:00 +3°C° 0 mm 5 mps 749 mmHg 79%
    16:00 +2°C° 0 mm 5 mps 749 mmHg 79%
    17:00 +3°C° 0 mm 4 mps 749 mmHg 80%
    18:00 +1°C° 0 mm 4 mps 749 mmHg 80%
    19:00 +1°C° 0 mm 4 mps 749 mmHg 82%
    20:00 +1°C° 0 mm 5 mps 748 mmHg 83%
    21:00 +1°C° 0 mm 5 mps 748 mmHg 84%
    22:00 +1°C° 0 mm 5 mps 748 mmHg 86%
    23:00 +1°C° 0 mm 5 mps 748 mmHg 87%

    Tomorrow, 21 November, Thursday

    Time Temperature Precipitation Wind Pressure Humidity
    00:00 +1°C° 0 mm 4 mps 747 mmHg 89%
    01:00 +1°C° 0 mm 5 mps 747 mmHg 89%
    02:00 +1°C° 0 mm 5 mps 746 mmHg 89%
    03:00 +1°C° 0 mm 5 mps 746 mmHg 90%
    04:00 +1°C° 0 mm 5 mps 746 mmHg 89%
    05:00 +2°C° 0 mm 5 mps 745 mmHg 89%
    06:00 +2°C° 0 mm 5 mps 745 mmHg 89%
    07:00 +2°C° 0 mm 5 mps 745 mmHg 90%
    08:00 +2°C° 0 mm 5 mps 745 mmHg 91%
    09:00 +2°C° 0 mm 5 mps 745 mmHg 91%
    10:00 +3°C° 0 mm 6 mps 744 mmHg 89%
    11:00 +4°C° 0 mm 6 mps 744 mmHg 87%
    12:00 +4°C° 0 mm 6 mps 743 mmHg 86%
    13:00 +5°C° 0 mm 6 mps 743 mmHg 86%
    14:00 +5°C° 0 mm 6 mps 743 mmHg 86%
    15:00 +5°C° 0 mm 6 mps 742 mmHg 87%
    16:00 +5°C° 0.2 mm 6 mps 742 mmHg 87%
    17:00 +5°C° 0.2 mm 6 mps 742 mmHg 88%
    18:00 +5°C° 0.2 mm 6 mps 742 mmHg 89%
    19:00 +6°C° 0.4 mm 5 mps 742 mmHg 91%
    20:00 +6°C° 0.4 mm 5 mps 742 mmHg 92%
    21:00 +6°C° 0.4 mm 5 mps 741 mmHg 94%
    22:00 +6°C° 0.4 mm 4 mps 741 mmHg 94%
    23:00 +6°C° 0.4 mm 4 mps 741 mmHg 93%

    Day after tomorrow, 22 November, Friday

    Time Temperature Precipitation Wind Pressure Humidity
    00:00 +6°C° 0.4 mm 4 mps 741 mmHg 92%
    01:00 +6°C° 0.4 mm 4 mps 741 mmHg 91%
    02:00 +6°C° 0.4 mm 4 mps 740 mmHg 90%
    03:00 +5°C° 0.4 mm 4 mps 740 mmHg 89%
    04:00 +5°C° 0.3 mm 4 mps 740 mmHg 90%
    05:00 +5°C° 0.3 mm 4 mps 740 mmHg 91%
    06:00 +5°C° 0.3 mm 4 mps 741 mmHg 91%
    07:00 +5°C° 0.2 mm 5 mps 741 mmHg 91%
    08:00 +6°C° 0.2 mm 5 mps 741 mmHg 90%
    09:00 +6°C° 0.2 mm 5 mps 741 mmHg 90%
    10:00 +6°C° 0.8 mm 5 mps 741 mmHg 91%
    11:00 +6°C° 0.8 mm 4 mps 741 mmHg 92%
    12:00 +6°C° 0.8 mm 4 mps 741 mmHg 94%
    13:00 +7°C° 0.1 mm 4 mps 741 mmHg 91%
    14:00 +7°C° 0.1 mm 5 mps 741 mmHg 88%
    15:00 +7°C° 0.1 mm 5 mps 740 mmHg 85%
    16:00 +7°C° 0 mm 5 mps 740 mmHg 85%
    17:00 +6°C° 0 mm 5 mps 740 mmHg 86%
    18:00 +6°C° 0 mm 5 mps 741 mmHg 86%
    19:00 +5°C° 0 mm 5 mps 740 mmHg 88%
    20:00 +5°C° 0 mm 4 mps 740 mmHg 89%
    21:00 +5°C° 0 mm 4 mps 740 mmHg 91%
    22:00 +5°C° 0 mm 4 mps 740 mmHg 91%
    23:00 +6°C° 0 mm 4 mps 740 mmHg 92%

    23 November, Saturday

    Time Temperature Precipitation Wind Pressure Humidity
    00:00 +6°C° 0 mm 5 mps 740 mmHg 92%
    01:00 +6°C° 0 mm 5 mps 740 mmHg 91%
    02:00 +6°C° 0 mm 5 mps 740 mmHg 91%
    03:00 +6°C° 0 mm 5 mps 739 mmHg 90%
    04:00 +6°C° 0.4 mm 5 mps 739 mmHg 90%
    05:00 +6°C° 0.4 mm 5 mps 739 mmHg 90%
    06:00 +5°C° 0.4 mm 6 mps 739 mmHg 91%
    07:00 +7°C° 0.3 mm 6 mps 740 mmHg 91%
    08:00 +7°C° 0.3 mm 5 mps 740 mmHg 91%
    09:00 +7°C° 0.3 mm 5 mps 740 mmHg 91%
    10:00 +7°C° 0.4 mm 5 mps 740 mmHg 92%
    11:00 +7°C° 0.4 mm 5 mps 740 mmHg 92%
    12:00 +7°C° 0.4 mm 4 mps 741 mmHg 93%
    13:00 +7°C° 0.5 mm 4 mps 741 mmHg 93%
    14:00 +8°C° 0.5 mm 4 mps 741 mmHg 94%
    15:00 +8°C° 0.5 mm 4 mps 741 mmHg 94%
    16:00 +8°C° 0.3 mm 4 mps 741 mmHg 93%
    17:00 +7°C° 0.3 mm 4 mps 742 mmHg 93%
    18:00 +7°C° 0.3 mm 4 mps 742 mmHg 92%
    19:00 +8°C° 0 mm 3 mps 743 mmHg 92%
    20:00 +8°C° 0 mm 2 mps 743 mmHg 92%
    21:00 +9°C° 0 mm 1 mps 744 mmHg 92%
    22:00 +8°C° 0 mm 1 mps 744 mmHg 92%
    23:00 +8°C° 0 mm 1 mps 745 mmHg 92%

    24 November, Sunday

    Time Temperature Precipitation Wind Pressure Humidity
    00:00 +8°C° 0 mm 1 mps 745 mmHg 92%
    01:00 +8°C° 0 mm 1 mps 745 mmHg 93%
    02:00 +6°C° 0 mm 2 mps 745 mmHg 93%
    03:00 +6°C° 0 mm 2 mps 746 mmHg 94%
    04:00 +6°C° 0 mm 2 mps 746 mmHg 95%
    05:00 +6°C° 0 mm 2 mps 746 mmHg 95%
    06:00 +6°C° 0 mm 2 mps 747 mmHg 95%
    07:00 +6°C° 0 mm 2 mps 747 mmHg 96%
    08:00 +7°C° 0 mm 2 mps 748 mmHg 96%
    09:00 +7°C° 0 mm 2 mps 748 mmHg 96%
    10:00 +8°C° 0 mm 3 mps 748 mmHg 93%
    11:00 +9°C° 0 mm 3 mps 748 mmHg 90%
    12:00 +10°C° 0 mm 3 mps 748 mmHg 87%
    13:00 +9°C° 0 mm 3 mps 748 mmHg 88%
    14:00 +9°C° 0 mm 3 mps 748 mmHg 88%
    15:00 +9°C° 0 mm 3 mps 748 mmHg 89%
    16:00 +8°C° 0 mm 3 mps 748 mmHg 91%
    17:00 +8°C° 0 mm 3 mps 748 mmHg 92%
    18:00 +7°C° 0 mm 3 mps 748 mmHg 93%
    19:00 +6°C° 0 mm 4 mps 748 mmHg 92%
    20:00 +6°C° 0 mm 5 mps 747 mmHg 91%
    21:00 +7°C° 0 mm 5 mps 747 mmHg 90%
    22:00 +7°C° 0.1 mm 6 mps 746 mmHg 90%
    23:00 +6°C° 0.1 mm 7 mps 746 mmHg 91%

    25 November, Monday

    Time Temperature Precipitation Wind Pressure Humidity
    00:00 +7°C° 0.1 mm 8 mps 745 mmHg 91%
    01:00 +7°C° 1.1 mm 8 mps 744 mmHg 92%
    02:00 +7°C° 1.1 mm 8 mps 743 mmHg 93%
    03:00 +9°C° 1.1 mm 8 mps 743 mmHg 93%
    04:00 +9°C° 0.6 mm 7 mps 742 mmHg 92%
    05:00 +10°C° 0.6 mm 7 mps 742 mmHg 91%
    06:00 +10°C° 0.6 mm 6 mps 741 mmHg 90%
    07:00 +10°C° 0.3 mm 6 mps 741 mmHg 89%
    08:00 +10°C° 0.3 mm 6 mps 741 mmHg 89%
    09:00 +10°C° 0.3 mm 6 mps 741 mmHg 88%
    10:00 +10°C° 0.1 mm 7 mps 740 mmHg 85%
    11:00 +10°C° 0.1 mm 8 mps 740 mmHg 83%
    12:00 +10°C° 0.1 mm 9 mps 740 mmHg 80%
    13:00 +10°C° 0.1 mm 8 mps 740 mmHg 81%
    14:00 +9°C° 0.1 mm 8 mps 740 mmHg 81%
    15:00 +9°C° 0.1 mm 7 mps 740 mmHg 81%
    16:00 +9°C° 0.5 mm 7 mps 740 mmHg 82%
    17:00 +8°C° 0.5 mm 7 mps 740 mmHg 82%
    18:00 +7°C° 0.5 mm 8 mps 740 mmHg 83%
    19:00 +6°C° 0 mm 8 mps 740 mmHg 83%
    20:00 +6°C° 0 mm 8 mps 740 mmHg 83%
    21:00 +5°C° 0 mm 8 mps 741 mmHg 83%
    22:00 +5°C° 0 mm 8 mps 740 mmHg 84%
    23:00 +6°C° 0 mm 8 mps 740 mmHg 84%
    Show more